Location: *
(39.6167°S, 171.5333°W)
Time: 22:30:01
(UTC+00:00)

Cosmos 2227 - Pass Details

Date: 13 May 2021
Orbit: 836 x 860 km, 71.0° (Epoch: 15 June)

Event Time Altitude Azimuth Distance (km) Brightness Sun altitude
Rises 17:45:27 0° 325° (NW) 3,379 7.2 -7.5°
Reaches altitude 10° 17:47:56 10° 320° (NW) 2,454 6.4 -7.0°
Maximum altitude 17:53:26 53° 243° (WSW) 1,038 4.4 -6.0°
Drops below altitude 10° 17:59:01 10° 166° (SSE) 2,493 6.6 -5.0°
Sets 18:01:34 0° 161° (SSE) 3,438 7.4 -4.5°
